National Oceanic Atmosphere Administration National Weather Service Headquarters National Weather Service Headquarters
NOAA logo WFO Anchorage Scalable transition graphic NWS logo
Transition from title bar to navgation bar   Aviation Weather 16 AKDT 
blankspace Home   |   Mobile   |   Social Media   |   Mesonet   |   Surface Map   |   Radar   |   Submit Storm Reports =00 GMT 

LocalForecast by City, St or Zip Code

spacer

Forecasts/Products
  Public
  Forecast Discussion
    - With Glossary
  Aviation
  Marine
  Hydrology(RFC)
  Rivers & Lakes AHPS
  Ice Desk
  TV Weather
  Fire Weather
  Avalanche
  Travel 511
  Graphical
  xml logo RSS Feeds
  Marine FTPMail

spacer

Data
  Mesonet
  Model Graphics
  Local Model
  Observations
  Marine Obs
  Satellite/Radar
  Vent Factor
  Soaring Index
  Weather Links

spacer

Climate
  PAFC Climate
  Interactive Climate
  PAFC Records
  Local
  National
  More

spacer

Outreach
  About Us
  Community Outreach
  Kids' Page
  Tour/Speaker Request
  Weather Classroom
  Social Media

spacer

Reports
  COOP Observers
  Local Storm Reports
  Spotter Page
  Submit a Storm Report

spacer

Miscellaneous
  Archived Alaska Weather Stories
  Student Career Opportunities
  Research Papers

spacer

Print Friendly/
Low Bandwidth

  Public Forecasts
  Marine Forecasts

spacer

Contact Us
  mailto pafcweb

spacer

Facebook Follow the National Weather Service in Alaska on Twitter
USA.gov is the U.S. government's official web portal to all federal, state and local government web resources and services.


 ICAO ID:   AAWU Graphics

Internet access to TAFs and METAR observations is for planning purposes only. We can not guarantee the timeliness of internet products. Before flying please get a formal pilot briefing (1-800-992-7433) and ALWAYS file a Flight Plan!Pilot briefings are provided to licensed aircraft pilots, ONLY! Others may not use the above number to obtain weather information.

Check out the Key to TAFs and METARs for help with decoding the information.

A 12 hour summary of TAFs can be found here.

PAAQ TAF
PAAQ 202331Z 2100/2124  14005KT P6SM SCT025 BKN050
      TEMPO 2100/2104 BKN025=


METAR PAAQ 202353Z 12003KT 10SM SCT021 BKN090 03/01 A2908 RMK AO2 SLP851
     60000 T00330011 10033 20000 51023=
SPECI PAAQ 202313Z 15003KT 10SM SCT010 SCT024 BKN037 BKN130 02/01 A2907
     RMK AO2 T00220006=
METAR PAAQ 202253Z 14004KT 10SM OVC025 02/01 A2906 RMK AO2 SLP843
 T00220011=
METAR PAAQ 202153Z 15003KT 10SM SCT004 OVC024 02/01 A2904 RMK AO2 SLP837
     T00170006=
SPECI PAAQ 202102Z 16004KT 10SM SCT004 OVC023 01/00 A2902 RMK AO2
     T00110000=
METAR PAAQ 202053Z 13003KT 10SM BKN004 OVC025 01/00 A2901 RMK AO2
     SNE1959 SLP827 P0000 60000 T00110000 53021=
SPECI PAAQ 202033Z 13003KT 10SM SCT004 OVC025 01/00 A2900 RMK AO2
     SNE1959 P0000 T00110000=


National Weather Service
Anchorage Forecast Office
6930 Sand Lake Road
Anchorage, Ak 99502
(907) 266-5105 M-F/7-5pm
About Us
Career Opportunities
Glossary
Disclaimer
Privacy Policy
Credits
Alaska Weather Information Line:
1-800-472-0391